DW3838 Weather Reports


Display with metric or nautical units.
time (UTC)temp
F
wind
direction
speed
MPH
gust
MPH
rain 1hr
in
rain 24hr
in
rain mn
in
humidity
%
barometer
mb
20260901104521 54 159 0.0 3.0 0.00 0.00 0.00 90 1014.1
20260901103020 53 98 0.0 3.0 0.00 0.00 0.00 91 1014.1
20260901101522 52 161 0.0 3.0 0.00 0.00 0.00 91 1013.9
20260901100018 52 223 0.0 0.0 0.00 0.00 0.00 91 1013.8
20260901094517 52 223 0.0 0.0 0.00 0.00 0.00 91 1013.7
20260901093020 52 223 0.0 0.0 0.00 0.00 0.00 90 1013.5
20260901091515 52 223 0.0 0.0 0.00 0.00 0.00 90 1013.5
20260901090015 52 223 0.0 0.0 0.00 0.00 0.00 90 1013.5
20260901084526 52 223 0.0 0.0 0.00 0.00 0.00 91 1013.6
20260901083012 52 223 0.0 0.0 0.00 0.00 0.00 90 1013.4
20260901081510 53 223 0.0 0.0 0.00 0.00 0.00 91 1013.3
20260901080011 53 220 0.0 0.0 0.00 0.00 0.00 91 1013.2
20260901074509 53 220 0.0 1.0 0.00 0.00 0.00 90 1013.4
20260901073006 53 242 0.0 0.0 0.00 0.00 0.00 90 1013.2
20260901071505 54 242 0.0 0.0 0.00 0.00 0.00 90 1013.2
20260901070002 54 242 0.0 0.0 0.00 0.00 0.00 90 1013.3
20260901064500 55 242 0.0 0.0 0.00 0.00 0.00 89 1013.3
20260901063101 56 242 0.0 0.0 0.00 0.00 0.00 89 1013.2
20260901061601 56 242 0.0 0.0 0.00 0.00 0.00 89 1013.3
20260901060057 57 242 0.0 0.0 0.00 0.00 0.00 89 1013.3
20260901054554 57 242 0.0 3.0 0.00 0.00 0.00 89 1013.3
20260901053107 57 207 0.0 4.0 0.00 0.00 0.00 89 1013.4
20260901051554 58 169 0.0 0.0 0.00 0.00 0.00 88 1013.5
20260901050053 58 169 0.0 5.0 0.00 0.00 0.00 88 1013.4
20260901044616 58 345 0.0 6.0 0.00 0.00 0.00 88 1013.4
20260901043052 58 227 0.0 0.0 0.00 0.00 0.00 87 1013.4
20260901041551 58 222 0.0 0.0 0.00 0.00 0.00 87 1013.2
20260901040053 58 222 0.0 4.0 0.00 0.00 0.00 87 1013.0
20260901034556 58 255 0.0 4.0 0.00 0.00 0.00 87 1012.8
20260901033050 58 172 0.0 8.0 0.00 0.00 0.00 87 1012.6
20260901031553 58 131 0.0 5.0 0.00 0.00 0.00 87 1012.5
20260901030049 59 166 0.0 7.0 0.00 0.00 0.00 86 1012.4
20260901024549 59 129 0.0 7.0 0.00 0.00 0.00 84 1012.3
20260901023047 60 109 0.0 12.0 0.00 0.00 0.00 83 1012.4
20260901021608 60 188 1.0 7.0 0.00 0.00 0.00 81 1012.2
20260901020106 61 165 1.0 6.0 0.00 0.00 0.00 79 1012.3
20260901014550 62 35 1.0 8.0 0.00 0.00 0.00 77 1012.2
20260901013047 62 55 0.0 6.0 0.00 0.00 0.00 76 1012.1
20260901011546 63 138 3.0 10.0 0.00 0.00 0.00 74 1012.1
20260901010045 64 223 3.0 8.0 0.00 0.00 0.00 71 1012.0
20260901004545 65 218 2.0 8.0 0.00 0.00 0.00 69 1012.1
20260901003050 67 296 1.0 9.0 0.00 0.00 0.00 66 1012.1
20260901001558 68 297 2.0 8.0 0.00 0.00 0.00 64 1012.2
20260901000049 69 9 0.0 11.0 0.00 0.00 0.00 62 1012.1
20260831234557 70 221 1.0 5.0 0.00 0.00 0.00 60 1012.1
20260831233047 71 161 1.0 7.0 0.00 0.00 0.00 60 1012.2
20260831231543 71 334 4.0 10.0 0.00 0.00 0.00 60 1012.3
20260831230042 70 18 2.0 8.0 0.00 0.00 0.00 61 1012.4
20260831224542 71 157 1.0 8.0 0.00 0.00 0.00 60 1012.5
20260831223041 70 56 1.0 11.0 0.00 0.00 0.00 62 1012.6
20260831221541 70 112 1.0 7.0 0.00 0.00 0.00 61 1012.8
20260831220048 71 175 2.0 11.0 0.00 0.00 0.00 60 1012.9
20260831214545 71 196 2.0 7.0 0.00 0.00 0.00 60 1013.0
20260831213040 71 184 2.0 9.0 0.00 0.00 0.00 61 1013.1
20260831211539 71 194 1.0 10.0 0.00 0.00 0.00 61 1013.2
20260831210047 72 228 0.0 9.0 0.00 0.00 0.00 61 1013.2
20260831204537 72 181 3.0 9.0 0.00 0.00 0.00 62 1013.2
20260831203032 70 223 1.0 10.0 0.00 0.00 0.00 63 1013.4
20260831201539 69 171 1.0 7.0 0.00 0.00 0.00 66 1013.5
20260831200035 68 121 0.0 7.0 0.00 0.00 0.00 67 1013.6
20260831194540 66 188 0.0 8.0 0.00 0.00 0.00 69 1013.7
20260831193025 65 207 0.0 4.0 0.00 0.00 0.00 73 1013.9
20260831191516 63 140 0.0 6.0 0.00 0.00 0.00 76 1014.1
20260831190012 62 63 0.0 0.0 0.00 0.00 0.00 79 1014.2
20260831184518 60 198 0.0 5.0 0.00 0.00 0.00 82 1014.4
20260831183004 59 86 0.0 4.0 0.00 0.00 0.00 84 1014.4
20260831181501 58 178 0.0 0.0 0.00 0.00 0.00 85 1014.5
20260831180101 57 178 0.0 0.0 0.00 0.00 0.00 87 1014.4
20260831174607 56 284 0.0 0.0 0.00 0.00 0.00 88 1014.3
20260831173101 55 269 0.0 0.0 0.00 0.00 0.00 90 1014.3
20260831171549 54 269 0.0 2.0 0.00 0.00 0.00 90 1014.1
20260831170052 53 184 0.0 3.0 0.00 0.00 0.00 90 1014.1
20260831164542 52 194 0.0 0.0 0.00 0.00 0.00 90 1013.9
20260831163049 51 194 0.0 0.0 0.00 0.00 0.00 90 1014.0
20260831161541 51 194 0.0 0.0 0.00 0.00 0.00 91 1013.9
20260831160045 51 194 0.0 0.0 0.00 0.00 0.00 91 1014.0
20260831154539 51 194 0.0 0.0 0.00 0.00 0.00 91 1013.7
20260831153042 51 194 0.0 0.0 0.00 0.00 0.00 91 1013.5
20260831151539 51 194 0.0 0.0 0.00 0.00 0.00 91 1013.5
20260831150034 51 194 0.0 0.0 0.00 0.00 0.00 91 1013.3
20260831144548 51 194 0.0 0.0 0.00 0.00 0.00 91 1013.2
20260831143041 51 194 0.0 0.0 0.00 0.00 0.00 91 1013.0
20260831141529 51 194 0.0 0.0 0.00 0.00 0.00 91 1012.8
20260831140028 51 194 0.0 0.0 0.00 0.00 0.00 91 1012.6
20260831134527 51 194 0.0 0.0 0.00 0.00 0.00 91 1012.5
20260831133026 51 194 0.0 0.0 0.00 0.00 0.00 91 1012.4
20260831131524 51 194 0.0 0.0 0.00 0.00 0.00 90 1012.4
20260831130024 51 194 0.0 0.0 0.00 0.00 0.00 90 1012.4
20260831124524 51 194 0.0 0.0 0.00 0.00 0.00 90 1012.4
20260831123023 51 194 0.0 0.0 0.00 0.00 0.00 91 1012.3
20260831121532 51 194 0.0 0.0 0.00 0.00 0.00 91 1012.3
20260831120024 51 194 0.0 0.0 0.00 0.00 0.00 91 1012.4
20260831114528 51 194 0.0 0.0 0.00 0.00 0.00 91 1012.4
20260831113021 50 194 0.0 0.0 0.00 0.00 0.00 91 1012.4
20260831111519 50 185 0.0 0.0 0.00 0.00 0.00 91 1012.2
20260831110022 50 203 0.0 0.0 0.00 0.00 0.00 91 1012.2